Total_Precipitation_Accumulation
1.11 1.30 1.48 1.64 1.81 1.94 2.03 2.06 2.08 2.14 2.24 2.30 2.25 2.29 2.38 2.42 2.37 2.37 2.36 2.26 2.13 2.00 1.91 1.86 1.80 1.73 1.75 1.72 1.76 1.84 1.89 1.96 1.95 1.52 1.29 1.29 1.39 1.39 1.42 1.33 1.29 1.26 1.21
1.00 1.11 1.31 1.41 1.55 1.72 1.83 1.87 1.87 1.91 1.96 2.02 2.07 2.12 2.14 2.19 2.23 2.25 2.23 2.19 2.15 2.03 1.94 1.90 1.83 1.80 1.89 1.89 1.90 1.89 1.86 1.82 1.83 1.65 1.38 1.29 1.29 1.24 1.21 1.23 1.23 1.22 1.13
0.96 1.00 1.14 1.28 1.37 1.45 1.57 1.67 1.73 1.76 1.83 1.88 1.89 1.99 2.03 2.01 2.06 2.10 2.11 2.12 2.12 2.08 2.02 1.99 1.93 1.92 1.96 1.95 1.92 1.89 1.83 1.77 1.74 1.69 1.52 1.37 1.35 1.29 1.27 1.25 1.22 1.21 1.13
0.88 0.96 0.99 1.15 1.27 1.33 1.38 1.46 1.53 1.56 1.63 1.67 1.71 1.74 1.83 1.88 1.92 2.01 2.08 2.07 2.08 2.08 2.05 2.01 1.95 1.93 1.89 1.84 1.80 1.75 1.74 1.78 1.78 1.77 1.65 1.51 1.45 1.42 1.44 1.47 1.42 1.29 1.23
0.80 0.91 0.96 1.02 1.11 1.23 1.33 1.40 1.49 1.51 1.54 1.58 1.61 1.63 1.65 1.71 1.80 1.90 2.01 2.09 2.10 2.10 2.09 2.01 1.89 1.85 1.78 1.75 1.72 1.67 1.68 1.81 1.88 1.89 1.78 1.63 1.51 1.51 1.54 1.46 1.46 1.41 1.34
0.78 0.83 0.91 0.99 1.03 1.08 1.18 1.30 1.39 1.50 1.55 1.57 1.64 1.68 1.70 1.75 1.98 2.08 2.05 2.06 2.08 2.03 1.95 1.83 1.75 1.74 1.69 1.73 1.76 1.73 1.79 1.94 2.04 1.98 1.81 1.59 1.36 1.29 1.37 1.52 1.65 1.72 1.64
0.84 0.83 0.87 0.94 1.04 1.09 1.12 1.22 1.38 1.49 1.65 1.73 1.76 1.83 1.84 1.86 1.94 1.84 1.89 1.89 1.93 1.93 1.84 1.71 1.62 1.52 1.51 1.39 1.53 1.66 1.70 1.80 1.83 1.77 1.68 1.42 1.29 1.25 1.49 1.75 1.75 1.68 1.44
0.88 0.91 0.93 0.94 1.06 1.17 1.20 1.26 1.37 1.47 1.62 1.78 1.83 1.86 1.85 1.84 1.84 1.71 1.70 1.58 1.58 1.62 1.63 1.61 1.55 1.50 1.43 1.41 1.46 1.54 1.44 1.39 1.40 1.32 1.31 1.31 1.31 1.33 1.54 1.82 1.84 1.82 1.57
0.90 0.95 0.99 1.02 1.14 1.24 1.26 1.29 1.35 1.42 1.50 1.58 1.67 1.69 1.65 1.64 1.64 1.54 1.54 1.44 1.43 1.40 1.37 1.42 1.47 1.41 1.52 1.63 1.58 1.53 1.36 1.22 1.24 1.33 1.40 1.40 1.48 1.50 1.59 1.96 2.15 2.21 1.97
1.01 1.04 1.08 1.17 1.30 1.36 1.34 1.33 1.31 1.32 1.33 1.31 1.33 1.32 1.31 1.31 1.38 1.35 1.35 1.27 1.31 1.28 1.28 1.32 1.46 1.43 1.54 1.65 1.52 1.50 1.41 1.22 1.16 1.16 1.16 1.17 1.16 1.23 1.45 1.67 2.13 2.47 2.14
1.09 1.11 1.13 1.20 1.28 1.34 1.32 1.26 1.24 1.21 1.19 1.15 1.13 1.12 1.10 1.13 1.18 1.18 1.22 1.17 1.18 1.22 1.23 1.21 1.25 1.50 1.58 1.60 1.49 1.35 1.37 1.33 1.19 1.10 1.09 1.06 1.06 1.10 1.18 1.29 1.62 2.27 2.47
1.02 1.04 1.04 1.07 1.13 1.21 1.25 1.21 1.16 1.17 1.16 1.14 1.13 1.15 1.12 1.13 1.14 1.14 1.20 1.23 1.25 1.21 1.15 1.07 1.16 1.42 1.42 1.40 1.35 1.37 1.50 1.41 1.20 1.19 1.17 1.13 1.09 1.06 1.07 1.14 1.28 1.50 1.79
0.91 0.96 0.95 0.92 0.95 1.02 1.09 1.13 1.15 1.16 1.16 1.15 1.15 1.17 1.15 1.12 1.16 1.23 1.21 1.29 1.30 1.17 1.13 1.25 1.29 1.28 1.23 1.23 1.32 1.37 1.33 1.30 1.38 1.44 1.31 1.13 1.03 1.01 1.05 1.14 1.21 1.29 1.40
0.76 0.84 0.87 0.87 0.88 0.88 0.92 1.02 1.10 1.15 1.16 1.13 1.15 1.19 1.15 1.07 1.08 1.15 1.18 1.22 1.26 1.22 1.23 1.28 1.24 1.16 1.11 1.14 1.24 1.26 1.22 1.28 1.45 1.52 1.40 1.18 1.08 1.11 1.18 1.27 1.42 1.47 1.61
0.67 0.72 0.76 0.82 0.87 0.91 0.92 1.00 1.11 1.17 1.28 1.32 1.23 1.19 1.22 1.21 1.20 1.33 1.36 1.30 1.34 1.37 1.35 1.19 1.09 1.06 1.05 1.04 1.06 1.08 1.15 1.26 1.39 1.35 1.38 1.35 1.28 1.28 1.31 1.39 1.61 1.75 1.82
0.71 0.71 0.75 0.82 0.86 0.89 0.91 0.96 1.07 1.13 1.19 1.23 1.26 1.26 1.22 1.27 1.31 1.37 1.42 1.47 1.51 1.50 1.40 1.24 1.11 1.03 0.99 0.96 0.98 1.03 1.08 1.17 1.30 1.40 1.44 1.44 1.44 1.42 1.42 1.45 1.65 1.85 1.84
0.76 0.78 0.79 0.84 0.89 0.88 0.88 0.91 0.97 1.01 1.05 1.07 1.13 1.20 1.22 1.24 1.25 1.30 1.40 1.45 1.42 1.39 1.36 1.26 1.13 1.06 1.02 0.96 0.97 1.01 1.04 1.06 1.21 1.41 1.51 1.54 1.56 1.53 1.53 1.59 1.69 1.79 1.74
0.74 0.80 0.84 0.87 0.92 0.92 0.90 0.90 0.92 0.95 0.97 0.99 1.03 1.11 1.16 1.20 1.26 1.31 1.36 1.37 1.36 1.26 1.20 1.19 1.14 1.08 1.07 1.08 1.09 1.11 1.11 1.11 1.21 1.35 1.43 1.50 1.60 1.68 1.68 1.66 1.69 1.74 1.70
0.72 0.76 0.80 0.86 0.91 0.95 0.94 0.92 0.93 0.91 0.91 0.94 0.96 1.06 1.16 1.19 1.25 1.31 1.28 1.22 1.19 1.14 1.09 1.07 1.06 1.09 1.13 1.17 1.20 1.22 1.26 1.31 1.35 1.49 1.51 1.52 1.61 1.74 1.72 1.61 1.60 1.57 1.52
0.68 0.78 0.84 0.88 0.89 0.91 0.94 0.96 0.95 0.92 0.91 0.90 0.91 0.99 1.11 1.19 1.19 1.16 1.13 1.10 1.12 1.12 1.07 1.07 1.07 1.07 1.15 1.22 1.26 1.30 1.36 1.38 1.41 1.52 1.57 1.60 1.65 1.75 1.74 1.59 1.50 1.49 1.41
0.69 0.73 0.80 0.84 0.88 0.91 0.93 0.97 0.97 0.95 0.94 0.92 0.91 1.00 1.21 1.22 1.11 1.00 1.01 1.06 1.11 1.12 1.11 1.10 1.09 1.13 1.19 1.25 1.32 1.34 1.39 1.41 1.45 1.57 1.62 1.60 1.61 1.61 1.51 1.48 1.45 1.44 1.46
0.71 0.73 0.73 0.79 0.86 0.92 0.98 1.00 1.00 0.97 0.93 0.92 0.92 0.96 1.10 1.06 1.03 1.02 1.02 1.02 1.02 1.04 1.07 1.15 1.16 1.15 1.28 1.45 1.58 1.63 1.52 1.43 1.44 1.56 1.59 1.49 1.45 1.45 1.44 1.47 1.46 1.47 1.49
0.73 0.75 0.76 0.80 0.88 0.97 1.01 0.99 1.01 0.99 0.96 0.93 0.94 0.94 0.94 0.96 1.00 1.03 1.05 1.04 1.02 1.01 1.01 1.09 1.17 1.13 1.16 1.35 1.58 1.89 1.98 1.74 1.62 1.71 1.83 1.67 1.51 1.49 1.54 1.55 1.48 1.47 1.43
0.74 0.78 0.81 0.84 0.89 0.94 0.97 0.98 0.98 1.00 0.99 0.97 0.95 0.95 0.96 0.97 0.99 1.00 1.01 1.03 1.04 1.01 0.99 1.05 1.12 1.12 1.13 1.30 1.47 1.62 1.77 1.90 2.08 2.14 2.11 2.10 1.83 1.59 1.57 1.56 1.46 1.42 1.42
0.73 0.79 0.83 0.87 0.91 0.94 0.95 0.96 0.96 0.97 0.98 0.99 0.98 0.97 0.97 0.96 0.95 0.94 0.95 0.97 0.99 0.99 0.94 0.96 1.04 1.09 1.14 1.24 1.38 1.48 1.62 1.79 1.99 2.11 2.03 1.95 1.77 1.57 1.55 1.53 1.45 1.43 1.43
0.73 0.77 0.81 0.84 0.89 0.93 0.97 0.99 0.98 0.99 1.02 1.01 1.00 0.99 0.99 0.97 0.92 0.91 0.91 0.92 0.94 0.93 0.89 0.89 0.93 1.01 1.11 1.22 1.26 1.38 1.52 1.51 1.48 1.52 1.74 1.89 1.76 1.55 1.51 1.58 1.47 1.44 1.43